User: anonymous   Login
Location: Caltech
(34.1382°N, 118.1253°W)
Time: 14:24:21
(UTC-07:00)
Language:

GPS 2-04 Rocket1 - Orbit

View from above orbital plane
View from above orbital plane
View from above satellite
View from above satellite

Ground track
Ground track

The orbit data is extracted from the following two-line orbital elements,

1 20303U 89085B   17263.90282583 +.00001984 +00000-0 +70548-4 0  9994
2 20303 035.6299 161.5789 0106740 297.9105 061.0846 15.23827437515695
Epoch (UTC): 20 September 2017 21:40:04
Eccentricity: 0.0106740
inclination: 35.6299°
perigee height: 421 km
apogee height: 567 km
right ascension of ascending node: 161.5789°
argument of perigee: 297.9105°
revolutions per day: 15.23827437
mean anomaly at epoch: 61.0846°
orbit number at epoch: 51569

The dashed part of the orbit path shows where the satellite is in the earth's shadow,  

DLR